Time,TemperatureF,DewpointF,PressureIn,WindDirection,WindDirectionDegrees,WindSpeedMPH,WindSpeedGustMPH,Humidity,HourlyPrecipIn,Conditions,Clouds,dailyrainin,SoftwareType,DateUTC
2013-01-01 00:02:00,68.5,68.5,29.94,South,182,1.8,5.3,100,0.00,RA,FEW,0.00,WeatherDisplay:10.37,2013-01-01 06:02:00,
2013-01-01 00:07:00,68.6,68.6,29.94,ESE,123,3.8,5.8,100,0.00,RA,FEW,0.00,WeatherDisplay:10.37,2013-01-01 06:07:00,
2013-01-01 00:12:00,68.6,67.1,29.94,South,169,2.9,5.8,95,0.00,,FEW,0.00,WeatherDisplay:10.37,2013-01-01 06:12:00,
2013-01-01 00:17:00,68.6,67.1,29.94,SSE,149,3.8,6.9,95,0.00,,FEW,0.00,WeatherDisplay:10.37,2013-01-01 06:17:00,
2013-01-01 00:22:00,68.6,67.1,29.94,SSW,194,2.2,4.6,95,0.00,,FEW,0.00,WeatherDisplay:10.37,2013-01-01 06:22:00,
2013-01-01 00:27:00,68.6,67.1,29.94,WSW,238,1.5,4.6,95,0.00,,FEW,0.00,WeatherDisplay:10.37,2013-01-01 06:27:00,
2013-01-01 00:32:00,68.6,67.1,29.94,SSE,156,1.1,4.6,95,0.00,,FEW,0.00,WeatherDisplay:10.37,2013-01-01 06:32:00,
2013-01-01 00:37:00,68.5,67.0,29.94,WSW,248,1.1,2.3,95,0.00,,FEW,0.00,WeatherDisplay:10.37,2013-01-01 06:37:00,
2013-01-01 00:42:00,68.4,68.4,29.95,SW,234,1.3,3.5,100,0.00,,FEW,0.00,WeatherDisplay:10.37,2013-01-01 06:42:00,
2013-01-01 00:47:00,68.4,66.9,29.95,SW,219,2.3,3.5,95,0.00,,FEW,0.00,WeatherDisplay:10.37,2013-01-01 06:47:00,
2013-01-01 00:52:00,68.4,68.4,29.95,SW,220,0.7,2.3,100,0.00,,FEW,0.00,WeatherDisplay:10.37,2013-01-01 06:52:00,
2013-01-01 00:57:00,68.4,68.4,29.94,South,187,1.8,3.5,100,0.00,,FEW,0.00,WeatherDisplay:10.37,2013-01-01 06:57:00,
2013-01-01 01:02:00,68.3,68.3,29.94,South,172,3.0,5.8,100,0.00,,FEW,0.00,WeatherDisplay:10.37,2013-01-01 07:02:00,
2013-01-01 01:07:00,68.2,68.2,29.93,SSE,159,2.2,4.6,100,0.00,,FEW,0.00,WeatherDisplay:10.37,2013-01-01 07:07:00,
2013-01-01 01:12:00,68.1,68.1,29.94,SSE,159,2.0,2.3,100,0.00,,FEW,0.00,WeatherDisplay:10.37,2013-01-01 07:12:00,
2013-01-01 01:17:00,68.1,68.1,29.94,South,189,0.3,1.1,100,0.00,,FEW,0.00,WeatherDisplay:10.37,2013-01-01 07:17:00,
2013-01-01 01:22:00,68.0,68.0,29.94,ESE,105,1.4,2.3,100,0.00,,FEW,0.00,WeatherDisplay:10.37,2013-01-01 07:22:00,
2013-01-01 01:27:00,68.0,68.0,29.94,SSW,195,1.0,2.3,100,0.00,,FEW,0.00,WeatherDisplay:10.37,2013-01-01 07:27:00,
2013-01-01 01:32:00,68.1,68.1,29.94,South,182,1.0,2.3,100,0.00,,FEW,0.00,WeatherDisplay:10.37,2013-01-01 07:32:00,
2013-01-01 01:37:00,68.2,68.2,29.94,SW,219,1.0,2.3,100,0.00,,FEW,0.00,WeatherDisplay:10.37,2013-01-01 07:37:00,
2013-01-01 01:42:00,68.3,68.3,29.95,SW,225,1.5,3.5,100,0.00,,FEW,0.00,WeatherDisplay:10.37,2013-01-01 07:42:00,
2013-01-01 01:47:00,68.4,68.4,29.94,SSW,194,0.9,2.3,100,0.00,,FEW,0.00,WeatherDisplay:10.37,2013-01-01 07:47:00,
2013-01-01 01:52:00,68.5,68.5,29.93,SW,232,1.5,3.2,100,0.00,,FEW,0.00,WeatherDisplay:10.37,2013-01-01 07:52:00,
2013-01-01 01:57:00,68.7,68.7,29.94,SW,230,1.1,2.3,100,0.00,,FEW,0.00,WeatherDisplay:10.37,2013-01-01 07:57:00,
2013-01-01 02:02:00,68.7,68.7,29.93,SW,218,1.8,3.5,100,0.00,,FEW,0.00,WeatherDisplay:10.37,2013-01-01 08:02:00,
2013-01-01 02:07:00,68.7,68.7,29.94,SW,227,1.4,2.3,100,0.00,,FEW,0.00,WeatherDisplay:10.37,2013-01-01 08:07:00,
2013-01-01 02:12:00,68.7,68.7,29.94,SSW,200,1.2,2.3,100,0.00,,FEW,0.00,WeatherDisplay:10.37,2013-01-01 08:12:00,
2013-01-01 02:17:00,68.6,68.6,29.94,SW,225,0.0,1.1,100,0.00,,FEW,0.00,WeatherDisplay:10.37,2013-01-01 08:17:00,
2013-01-01 02:22:00,68.6,68.6,29.93,South,169,0.8,2.3,100,0.00,,FEW,0.00,WeatherDisplay:10.37,2013-01-01 08:22:00,
2013-01-01 02:27:00,68.5,68.5,29.93,South,170,1.4,2.3,100,0.00,,FEW,0.00,WeatherDisplay:10.37,2013-01-01 08:27:00,
2013-01-01 02:32:00,68.5,68.5,29.93,South,176,0.4,2.3,100,0.00,,FEW,0.00,WeatherDisplay:10.37,2013-01-01 08:32:00,
2013-01-01 02:37:00,68.4,68.4,29.93,South,185,0.4,2.3,100,0.00,,FEW,0.00,WeatherDisplay:10.37,2013-01-01 08:37:00,
2013-01-01 02:42:00,68.4,68.4,29.93,South,183,1.5,2.3,100,0.00,,FEW,0.00,WeatherDisplay:10.37,2013-01-01 08:42:00,
2013-01-01 02:47:00,68.4,68.4,29.93,SSE,152,1.4,3.2,100,0.00,,FEW,0.00,WeatherDisplay:10.37,2013-01-01 08:47:00,
2013-01-01 02:52:00,68.4,68.4,29.93,SW,220,3.7,5.8,100,0.00,,FEW,0.00,WeatherDisplay:10.37,2013-01-01 08:52:00,
2013-01-01 02:57:00,68.4,68.4,29.92,SE,141,3.3,6.9,100,0.00,,FEW,0.00,WeatherDisplay:10.37,2013-01-01 08:57:00,
2013-01-01 03:02:00,68.5,68.5,29.92,SW,232,6.4,6.9,100,0.01,RA,FEW,0.01,WeatherDisplay:10.37,2013-01-01 09:02:00,
2013-01-01 03:07:00,68.5,68.5,29.91,SSE,163,4.8,6.9,100,0.01,RA,FEW,0.01,WeatherDisplay:10.37,2013-01-01 09:07:00,
2013-01-01 03:12:00,68.6,68.6,29.90,SE,139,5.9,8.1,100,0.01,,FEW,0.01,WeatherDisplay:10.37,2013-01-01 09:12:00,
2013-01-01 03:17:00,68.6,68.6,29.90,SSE,163,4.3,5.8,100,0.01,,FEW,0.01,WeatherDisplay:10.37,2013-01-01 09:17:00,
2013-01-01 03:22:00,68.6,68.6,29.89,SE,146,1.6,3.5,100,0.02,RA,FEW,0.02,WeatherDisplay:10.37,2013-01-01 09:22:00,
2013-01-01 03:27:00,68.5,68.5,29.89,SSE,156,2.7,5.8,100,0.02,RA,FEW,0.02,WeatherDisplay:10.37,2013-01-01 09:27:00,
2013-01-01 03:32:00,68.4,68.4,29.89,SSW,196,5.7,8.1,100,0.02,,FEW,0.02,WeatherDisplay:10.37,2013-01-01 09:32:00,
2013-01-01 03:37:00,68.2,68.2,29.89,SE,140,6.1,6.9,100,0.02,,FEW,0.02,WeatherDisplay:10.37,2013-01-01 09:37:00,
2013-01-01 03:42:00,68.1,68.1,29.90,SSW,201,2.8,5.8,100,0.02,,FEW,0.02,WeatherDisplay:10.37,2013-01-01 09:42:00,
2013-01-01 03:47:00,68.0,68.0,29.90,South,170,2.1,3.5,100,0.02,,FEW,0.02,WeatherDisplay:10.37,2013-01-01 09:47:00,
2013-01-01 03:52:00,67.8,67.8,29.90,SSE,166,1.8,5.3,100,0.02,,FEW,0.02,WeatherDisplay:10.37,2013-01-01 09:52:00,
2013-01-01 03:57:00,67.7,67.7,29.89,SE,135,3.3,6.3,100,0.02,,FEW,0.02,WeatherDisplay:10.37,2013-01-01 09:57:00,
2013-01-01 04:02:00,67.7,67.7,29.88,South,184,3.1,5.8,100,0.01,,FEW,0.02,WeatherDisplay:10.37,2013-01-01 10:02:00,
2013-01-01 04:07:00,67.8,67.8,29.89,South,186,4.6,6.9,100,0.01,,FEW,0.02,WeatherDisplay:10.37,2013-01-01 10:07:00,
2013-01-01 04:12:00,67.8,67.8,29.88,SSE,159,5.7,8.1,100,0.01,,FEW,0.02,WeatherDisplay:10.37,2013-01-01 10:12:00,
2013-01-01 04:17:00,67.8,67.8,29.88,SSW,195,2.7,5.8,100,0.01,,FEW,0.02,WeatherDisplay:10.37,2013-01-01 10:17:00,
2013-01-01 04:22:00,67.8,67.8,29.88,SW,223,4.2,6.3,100,0.00,,FEW,0.02,WeatherDisplay:10.37,2013-01-01 10:22:00,
2013-01-01 04:27:00,67.9,67.9,29.88,SW,217,7.1,10.4,100,0.00,,FEW,0.02,WeatherDisplay:10.37,2013-01-01 10:27:00,
2013-01-01 04:32:00,68.1,68.1,29.88,SW,220,5.1,6.9,100,0.00,,FEW,0.02,WeatherDisplay:10.37,2013-01-01 10:32:00,
2013-01-01 04:37:00,68.4,68.4,29.89,SSW,211,4.6,5.8,100,0.00,,FEW,0.02,WeatherDisplay:10.37,2013-01-01 10:37:00,
2013-01-01 04:42:00,68.6,68.6,29.89,SSW,211,2.8,6.9,100,0.00,,FEW,0.02,WeatherDisplay:10.37,2013-01-01 10:42:00,
2013-01-01 04:47:00,68.8,68.8,29.88,West,259,4.1,8.1,100,0.00,,FEW,0.02,WeatherDisplay:10.37,2013-01-01 10:47:00,
2013-01-01 04:52:00,68.8,68.8,29.88,South,169,3.8,6.9,100,0.00,,FEW,0.02,WeatherDisplay:10.37,2013-01-01 10:52:00,
2013-01-01 04:57:00,68.9,68.9,29.89,WSW,246,6.0,8.4,100,0.00,,FEW,0.02,WeatherDisplay:10.37,2013-01-01 10:57:00,
2013-01-01 05:02:00,69.0,67.5,29.89,SSW,211,5.1,11.5,95,0.00,,FEW,0.02,WeatherDisplay:10.37,2013-01-01 11:02:00,
2013-01-01 05:07:00,68.9,67.4,29.89,SW,218,3.5,5.8,95,0.00,,FEW,0.02,WeatherDisplay:10.37,2013-01-01 11:07:00,
2013-01-01 05:12:00,68.8,67.3,29.89,SSW,203,4.7,5.8,95,0.00,,FEW,0.02,WeatherDisplay:10.37,2013-01-01 11:12:00,
2013-01-01 05:17:00,68.7,67.2,29.89,SW,230,2.4,5.8,95,0.00,,FEW,0.02,WeatherDisplay:10.37,2013-01-01 11:17:00,
2013-01-01 05:22:00,68.6,67.1,29.89,South,185,2.5,4.6,95,0.01,RA,FEW,0.03,WeatherDisplay:10.37,2013-01-01 11:22:00,
2013-01-01 05:27:00,68.7,67.2,29.90,WSW,238,3.6,5.8,95,0.01,RA,FEW,0.03,WeatherDisplay:10.37,2013-01-01 11:27:00,
2013-01-01 05:32:00,68.6,67.1,29.90,WNW,283,1.3,3.5,95,0.01,,FEW,0.03,WeatherDisplay:10.37,2013-01-01 11:32:00,
2013-01-01 05:37:00,68.5,68.5,29.90,WNW,294,3.1,5.8,100,0.01,,FEW,0.03,WeatherDisplay:10.37,2013-01-01 11:37:00,
2013-01-01 05:42:00,68.3,66.8,29.91,NW,309,10.6,11.5,95,0.01,,FEW,0.03,WeatherDisplay:10.37,2013-01-01 11:42:00,
2013-01-01 05:47:00,67.8,67.8,29.92,West,268,5.1,9.2,100,0.02,RA,FEW,0.04,WeatherDisplay:10.37,2013-01-01 11:47:00,
2013-01-01 05:52:00,67.7,67.7,29.92,NW,307,5.7,7.5,100,0.02,RA,FEW,0.04,WeatherDisplay:10.37,2013-01-01 11:52:00,
2013-01-01 05:57:00,67.7,67.7,29.92,WNW,303,4.0,4.0,100,0.02,RA,FEW,0.04,WeatherDisplay:10.37,2013-01-01 11:57:00,
2013-01-01 06:02:00,67.7,67.7,29.92,WNW,298,2.3,5.8,100,0.02,,FEW,0.04,WeatherDisplay:10.37,2013-01-01 12:02:00,
2013-01-01 06:07:00,67.8,67.8,29.92,West,266,4.2,8.1,100,0.02,,FEW,0.04,WeatherDisplay:10.37,2013-01-01 12:07:00,
2013-01-01 06:12:00,67.9,67.9,29.92,WNW,291,3.6,8.1,100,0.02,,FEW,0.04,WeatherDisplay:10.37,2013-01-01 12:12:00,
2013-01-01 06:17:00,68.0,68.0,29.92,NW,313,0.6,2.3,100,0.03,RA,FEW,0.05,WeatherDisplay:10.37,2013-01-01 12:17:00,
2013-01-01 06:22:00,68.0,68.0,29.92,WNW,303,1.9,3.5,100,0.02,RA,FEW,0.05,WeatherDisplay:10.37,2013-01-01 12:22:00,
2013-01-01 06:27:00,68.1,68.1,29.92,WNW,298,2.3,5.8,100,0.02,,FEW,0.05,WeatherDisplay:10.37,2013-01-01 12:27:00,
2013-01-01 06:32:00,68.1,68.1,29.93,NW,309,2.1,3.5,100,0.02,,FEW,0.05,WeatherDisplay:10.37,2013-01-01 12:32:00,
2013-01-01 06:37:00,68.1,68.1,29.93,NW,308,1.7,3.5,100,0.02,,FEW,0.05,WeatherDisplay:10.37,2013-01-01 12:37:00,
2013-01-01 06:42:00,68.1,68.1,29.93,WNW,298,0.5,1.1,100,0.02,,FEW,0.05,WeatherDisplay:10.37,2013-01-01 12:42:00,
2013-01-01 06:47:00,68.0,68.0,29.93,WNW,299,1.1,3.5,100,0.01,,FEW,0.05,WeatherDisplay:10.37,2013-01-01 12:47:00,
2013-01-01 06:52:00,68.0,68.0,29.94,WNW,301,0.6,1.1,100,0.01,,FEW,0.05,WeatherDisplay:10.37,2013-01-01 12:52:00,
2013-01-01 06:57:00,68.0,68.0,29.94,WNW,301,0.8,2.3,100,0.01,,FEW,0.05,WeatherDisplay:10.37,2013-01-01 12:57:00,
2013-01-01 07:02:00,67.9,67.9,29.94,NW,307,0.1,1.1,100,0.01,,FEW,0.05,WeatherDisplay:10.37,2013-01-01 13:02:00,
2013-01-01 07:07:00,67.8,67.8,29.94,NW,305,1.8,2.3,100,0.01,,FEW,0.05,WeatherDisplay:10.37,2013-01-01 13:07:00,
2013-01-01 07:12:00,67.8,67.8,29.94,WNW,303,0.0,0.0,100,0.01,,FEW,0.05,WeatherDisplay:10.37,2013-01-01 13:12:00,
2013-01-01 07:17:00,67.7,67.7,29.95,NW,308,0.0,0.0,100,0.00,,FEW,0.05,WeatherDisplay:10.37,2013-01-01 13:17:00,
2013-01-01 07:22:00,67.6,67.6,29.94,WNW,301,0.5,1.1,100,0.00,,FEW,0.05,WeatherDisplay:10.37,2013-01-01 13:22:00,
2013-01-01 07:27:00,67.5,67.5,29.95,NW,322,0.0,0.0,100,0.00,,FEW,0.05,WeatherDisplay:10.37,2013-01-01 13:27:00,
2013-01-01 07:32:00,67.4,67.4,29.95,WNW,289,0.2,2.3,100,0.00,,FEW,0.05,WeatherDisplay:10.37,2013-01-01 13:32:00,
2013-01-01 07:37:00,67.4,67.4,29.96,WNW,290,0.1,0.0,100,0.00,,FEW,0.05,WeatherDisplay:10.37,2013-01-01 13:37:00,
2013-01-01 07:42:00,67.4,67.4,29.97,WNW,293,0.0,0.0,100,0.00,,FEW,0.05,WeatherDisplay:10.37,2013-01-01 13:42:00,
2013-01-01 07:47:00,67.4,67.4,29.97,WNW,300,0.0,0.0,100,0.00,,FEW,0.05,WeatherDisplay:10.37,2013-01-01 13:47:00,
2013-01-01 07:52:00,67.4,67.4,29.97,WNW,300,0.0,0.0,100,0.00,,FEW,0.05,WeatherDisplay:10.37,2013-01-01 13:52:00,
2013-01-01 07:57:00,67.4,67.4,29.97,WNW,296,0.0,0.0,100,0.00,,FEW,0.05,WeatherDisplay:10.37,2013-01-01 13:57:00,
2013-01-01 08:02:00,67.4,67.4,29.97,WNW,296,0.0,0.0,100,0.00,,FEW,0.05,WeatherDisplay:10.37,2013-01-01 14:02:00,
2013-01-01 08:07:00,67.4,67.4,29.97,North,356,0.1,2.3,100,0.00,,FEW,0.05,WeatherDisplay:10.37,2013-01-01 14:07:00,
2013-01-01 08:12:00,67.4,67.4,29.97,North,353,0.0,0.0,100,0.00,,FEW,0.05,WeatherDisplay:10.37,2013-01-01 14:12:00,
2013-01-01 08:17:00,67.4,67.4,29.98,NE,34,0.0,0.0,100,0.00,,FEW,0.05,WeatherDisplay:10.37,2013-01-01 14:17:00,
2013-01-01 08:22:00,67.5,67.5,29.98,WNW,303,0.0,0.0,100,0.00,,FEW,0.05,WeatherDisplay:10.37,2013-01-01 14:22:00,
2013-01-01 08:27:00,67.5,67.5,29.99,WNW,301,0.0,0.0,100,0.00,,FEW,0.05,WeatherDisplay:10.37,2013-01-01 14:27:00,
2013-01-01 08:32:00,67.5,67.5,29.99,NNW,327,0.8,2.3,100,0.00,,FEW,0.05,WeatherDisplay:10.37,2013-01-01 14:32:00,
2013-01-01 08:37:00,66.3,66.3,30.00,North,3,9.4,9.4,100,0.00,,FEW,0.05,WeatherDisplay:10.37,2013-01-01 14:37:00,
2013-01-01 08:42:00,64.9,64.9,30.01,North,356,11.2,17.3,100,0.00,,FEW,0.05,WeatherDisplay:10.37,2013-01-01 14:42:00,
2013-01-01 08:47:00,63.9,63.9,30.01,NW,315,7.3,8.1,100,0.01,RA,FEW,0.07,WeatherDisplay:10.37,2013-01-01 14:47:00,
2013-01-01 08:52:00,63.3,63.3,30.02,NNW,334,5.1,5.8,100,0.01,RA,FEW,0.07,WeatherDisplay:10.37,2013-01-01 14:52:00,
2013-01-01 08:57:00,62.6,62.6,30.02,North,355,6.0,8.1,100,0.01,,FEW,0.07,WeatherDisplay:10.37,2013-01-01 14:57:00,
2013-01-01 09:02:00,61.9,61.9,30.03,North,354,7.7,8.1,100,0.01,,FEW,0.07,WeatherDisplay:10.37,2013-01-01 15:02:00,
2013-01-01 09:07:00,61.1,61.1,30.04,North,350,11.0,11.0,100,0.01,,FEW,0.07,WeatherDisplay:10.37,2013-01-01 15:07:00,
2013-01-01 09:12:00,60.3,60.3,30.04,NNW,343,7.8,8.1,100,0.01,,FEW,0.07,WeatherDisplay:10.37,2013-01-01 15:12:00,
2013-01-01 09:17:00,59.6,59.6,30.04,NE,51,10.8,11.5,100,0.02,RA,FEW,0.08,WeatherDisplay:10.37,2013-01-01 15:17:00,
2013-01-01 09:22:00,59.1,59.1,30.05,NNE,17,15.0,15.0,100,0.02,RA,FEW,0.08,WeatherDisplay:10.37,2013-01-01 15:22:00,
2013-01-01 09:27:00,58.8,58.8,30.05,NE,42,6.5,8.1,100,0.02,,FEW,0.08,WeatherDisplay:10.37,2013-01-01 15:27:00,
2013-01-01 09:32:00,58.5,58.5,30.06,NNE,33,6.6,13.2,100,0.03,RA,FEW,0.09,WeatherDisplay:10.37,2013-01-01 15:32:00,
2013-01-01 09:37:00,58.1,58.1,30.06,NE,45,6.0,8.1,100,0.03,RA,FEW,0.09,WeatherDisplay:10.37,2013-01-01 15:37:00,
2013-01-01 09:42:00,57.8,57.8,30.07,North,1,4.5,9.4,100,0.03,,FEW,0.09,WeatherDisplay:10.37,2013-01-01 15:42:00,
2013-01-01 09:47:00,57.6,57.6,30.07,NNW,337,4.4,7.5,100,0.02,,FEW,0.09,WeatherDisplay:10.37,2013-01-01 15:47:00,
2013-01-01 09:52:00,57.5,57.5,30.07,NE,49,8.1,8.1,100,0.03,RA,FEW,0.10,WeatherDisplay:10.37,2013-01-01 15:52:00,
2013-01-01 09:57:00,57.2,57.2,30.07,NE,56,9.4,11.5,100,0.03,RA,FEW,0.10,WeatherDisplay:10.37,2013-01-01 15:57:00,
2013-01-01 10:02:00,57.0,57.0,30.07,NNE,29,9.1,9.2,100,0.03,,FEW,0.10,WeatherDisplay:10.37,2013-01-01 16:02:00,
2013-01-01 10:07:00,56.8,56.8,30.07,NE,38,6.9,8.1,100,0.03,,FEW,0.10,WeatherDisplay:10.37,2013-01-01 16:07:00,
2013-01-01 10:12:00,56.8,56.8,30.07,NNE,24,9.5,9.5,100,0.03,,FEW,0.10,WeatherDisplay:10.37,2013-01-01 16:12:00,
2013-01-01 10:17:00,56.9,56.9,30.08,NNE,17,3.9,7.5,100,0.02,,FEW,0.10,WeatherDisplay:10.37,2013-01-01 16:17:00,
2013-01-01 10:22:00,57.0,57.0,30.08,NW,324,9.9,11.5,100,0.02,,FEW,0.10,WeatherDisplay:10.37,2013-01-01 16:22:00,
2013-01-01 10:27:00,56.8,56.8,30.08,East,90,5.1,9.2,100,0.02,,FEW,0.10,WeatherDisplay:10.37,2013-01-01 16:27:00,
2013-01-01 10:32:00,56.6,56.6,30.08,NNW,327,3.9,7.5,100,0.01,,FEW,0.10,WeatherDisplay:10.37,2013-01-01 16:32:00,
2013-01-01 10:37:00,56.6,56.6,30.08,East,83,3.7,12.7,100,0.01,,FEW,0.10,WeatherDisplay:10.37,2013-01-01 16:37:00,
2013-01-01 10:42:00,56.5,56.5,30.08,NE,53,12.4,12.4,100,0.01,,FEW,0.10,WeatherDisplay:10.37,2013-01-01 16:42:00,
2013-01-01 10:47:00,56.5,56.5,30.09,NE,47,5.7,5.8,100,0.01,,FEW,0.10,WeatherDisplay:10.37,2013-01-01 16:47:00,
2013-01-01 10:52:00,56.5,56.5,30.08,ENE,60,6.0,8.1,100,0.00,,FEW,0.10,WeatherDisplay:10.37,2013-01-01 16:52:00,
2013-01-01 10:57:00,56.5,56.5,30.09,NNW,335,13.3,13.3,100,0.00,,FEW,0.10,WeatherDisplay:10.37,2013-01-01 16:57:00,
2013-01-01 11:02:00,56.5,56.5,30.08,SSE,168,7.4,11.3,100,0.00,CLR,FEW,0.10,WeatherDisplay:10.37,2013-01-01 17:02:00,
2013-01-01 11:07:00,56.6,56.6,30.08,NNE,33,9.9,9.9,100,0.00,CLR,FEW,0.10,WeatherDisplay:10.37,2013-01-01 17:07:00,
2013-01-01 11:12:00,56.7,56.7,30.09,NNW,343,7.9,11.5,100,0.00,CLR,FEW,0.10,WeatherDisplay:10.37,2013-01-01 17:12:00,
2013-01-01 11:17:00,56.7,56.7,30.08,North,1,4.0,5.8,100,0.00,CLR,FEW,0.10,WeatherDisplay:10.37,2013-01-01 17:17:00,
2013-01-01 11:22:00,56.7,55.3,30.08,North,2,9.6,9.6,95,0.00,CLR,FEW,0.10,WeatherDisplay:10.37,2013-01-01 17:22:00,
2013-01-01 11:27:00,56.8,55.4,30.08,ENE,60,4.0,5.8,95,0.00,CLR,FEW,0.10,WeatherDisplay:10.37,2013-01-01 17:27:00,
2013-01-01 11:32:00,56.8,55.4,30.08,NE,42,10.5,10.5,95,0.00,CLR,FEW,0.10,WeatherDisplay:10.37,2013-01-01 17:32:00,
2013-01-01 11:37:00,57.0,55.6,30.08,NNW,332,6.6,6.6,95,0.00,CLR,FEW,0.10,WeatherDisplay:10.37,2013-01-01 17:37:00,
2013-01-01 11:42:00,57.1,55.4,30.08,North,359,11.0,11.5,94,0.00,CLR,FEW,0.10,WeatherDisplay:10.37,2013-01-01 17:42:00,
2013-01-01 11:47:00,57.3,55.9,30.08,North,9,1.1,2.3,95,0.00,CLR,FEW,0.10,WeatherDisplay:10.37,2013-01-01 17:47:00,
2013-01-01 11:52:00,57.7,56.0,30.08,NE,53,7.6,9.2,94,0.00,CLR,FEW,0.10,WeatherDisplay:10.37,2013-01-01 17:52:00,
2013-01-01 11:57:00,57.6,55.6,30.08,North,350,11.9,11.9,93,0.00,CLR,FEW,0.10,WeatherDisplay:10.37,2013-01-01 17:57:00,
2013-01-01 12:02:00,57.8,55.8,30.08,NNW,328,12.1,17.3,93,0.00,CLR,FEW,0.10,WeatherDisplay:10.37,2013-01-01 18:02:00,
2013-01-01 12:07:00,58.0,55.7,30.08,ENE,57,9.0,11.5,92,0.00,CLR,FEW,0.10,WeatherDisplay:10.37,2013-01-01 18:07:00,
2013-01-01 12:12:00,57.9,55.3,30.08,ESE,119,5.3,8.1,91,0.00,CLR,FEW,0.10,WeatherDisplay:10.37,2013-01-01 18:12:00,
2013-01-01 12:17:00,57.9,55.3,30.08,ENE,58,8.9,11.5,91,0.00,CLR,FEW,0.10,WeatherDisplay:10.37,2013-01-01 18:17:00,
2013-01-01 12:22:00,57.7,55.1,30.08,North,7,8.6,9.2,91,0.00,CLR,FEW,0.10,WeatherDisplay:10.37,2013-01-01 18:22:00,
2013-01-01 12:27:00,57.6,55.0,30.08,NE,56,4.8,5.8,91,0.00,CLR,FEW,0.10,WeatherDisplay:10.37,2013-01-01 18:27:00,
2013-01-01 12:32:00,57.6,55.3,30.08,NE,50,0.1,2.3,92,0.00,CLR,FEW,0.10,WeatherDisplay:10.37,2013-01-01 18:32:00,
2013-01-01 12:37:00,57.5,54.9,30.08,North,352,2.1,3.5,91,0.00,CLR,FEW,0.10,WeatherDisplay:10.37,2013-01-01 18:37:00,
2013-01-01 12:42:00,57.5,55.2,30.08,NE,50,4.0,5.8,92,0.00,CLR,FEW,0.10,WeatherDisplay:10.37,2013-01-01 18:42:00,
2013-01-01 12:47:00,57.3,54.7,30.08,NNE,14,1.8,7.5,91,0.00,CLR,FEW,0.10,WeatherDisplay:10.37,2013-01-01 18:47:00,
2013-01-01 12:52:00,57.2,54.9,30.08,North,354,2.9,5.6,92,0.00,CLR,FEW,0.10,WeatherDisplay:10.37,2013-01-01 18:52:00,
2013-01-01 12:57:00,56.9,54.3,30.08,ENE,61,1.6,2.3,91,0.00,CLR,FEW,0.10,WeatherDisplay:10.37,2013-01-01 18:57:00,
2013-01-01 13:02:00,56.7,53.8,30.08,NE,42,2.8,3.5,90,0.00,,FEW,0.10,WeatherDisplay:10.37,2013-01-01 19:02:00,
2013-01-01 13:07:00,56.7,54.1,30.09,North,360,3.1,5.8,91,0.00,,FEW,0.10,WeatherDisplay:10.37,2013-01-01 19:07:00,
2013-01-01 13:12:00,56.8,54.2,30.08,NNW,332,6.9,9.2,91,0.00,,FEW,0.10,WeatherDisplay:10.37,2013-01-01 19:12:00,
2013-01-01 13:17:00,56.9,54.0,30.07,NE,56,3.5,3.5,90,0.00,,FEW,0.10,WeatherDisplay:10.37,2013-01-01 19:17:00,
2013-01-01 13:22:00,57.0,54.4,30.08,NE,56,0.3,2.3,91,0.00,,FEW,0.10,WeatherDisplay:10.37,2013-01-01 19:22:00,
2013-01-01 13:27:00,57.2,54.3,30.08,North,352,5.7,5.8,90,0.00,,FEW,0.10,WeatherDisplay:10.37,2013-01-01 19:27:00,
2013-01-01 13:32:00,57.1,54.2,30.08,North,9,0.1,3.5,90,0.00,,FEW,0.10,WeatherDisplay:10.37,2013-01-01 19:32:00,
2013-01-01 13:37:00,57.1,54.2,30.08,North,355,6.8,8.1,90,0.00,,FEW,0.10,WeatherDisplay:10.37,2013-01-01 19:37:00,
2013-01-01 13:42:00,57.0,54.1,30.08,NE,54,9.8,9.8,90,0.00,,FEW,0.10,WeatherDisplay:10.37,2013-01-01 19:42:00,
2013-01-01 13:47:00,57.0,54.1,30.08,NNE,24,3.8,8.1,90,0.00,,FEW,0.10,WeatherDisplay:10.37,2013-01-01 19:47:00,
2013-01-01 13:52:00,56.9,54.0,30.08,NNW,329,7.3,9.2,90,0.00,,FEW,0.10,WeatherDisplay:10.37,2013-01-01 19:52:00,
2013-01-01 13:57:00,56.9,53.7,30.08,NNW,339,9.0,15.0,89,0.00,,FEW,0.10,WeatherDisplay:10.37,2013-01-01 19:57:00,
2013-01-01 14:02:00,57.0,53.8,30.07,East,94,5.5,8.1,89,0.00,,FEW,0.10,WeatherDisplay:10.37,2013-01-01 20:02:00,
2013-01-01 14:07:00,57.2,54.0,30.07,NNE,26,7.2,7.2,89,0.00,,FEW,0.10,WeatherDisplay:10.37,2013-01-01 20:07:00,
2013-01-01 14:12:00,57.2,53.7,30.07,NNE,25,9.7,11.5,88,0.00,,FEW,0.10,WeatherDisplay:10.37,2013-01-01 20:12:00,
2013-01-01 14:17:00,57.5,54.0,30.07,WSW,239,2.3,8.1,88,0.00,,FEW,0.10,WeatherDisplay:10.37,2013-01-01 20:17:00,
2013-01-01 14:22:00,57.8,54.3,30.08,NNE,17,0.2,8.1,88,0.00,,FEW,0.10,WeatherDisplay:10.37,2013-01-01 20:22:00,
2013-01-01 14:27:00,58.0,54.5,30.07,ENE,69,6.3,9.2,88,0.00,,FEW,0.10,WeatherDisplay:10.37,2013-01-01 20:27:00,
2013-01-01 14:32:00,58.2,54.3,30.08,NNE,24,7.3,7.3,87,0.00,,FEW,0.10,WeatherDisplay:10.37,2013-01-01 20:32:00,
2013-01-01 14:37:00,58.3,54.1,30.08,NNE,26,7.8,9.2,86,0.00,,FEW,0.10,WeatherDisplay:10.37,2013-01-01 20:37:00,
2013-01-01 14:42:00,58.0,53.2,30.09,North,3,6.5,8.1,84,0.00,,FEW,0.10,WeatherDisplay:10.37,2013-01-01 20:42:00,
2013-01-01 14:47:00,57.9,53.4,30.09,SE,130,4.8,8.1,85,0.00,,FEW,0.10,WeatherDisplay:10.37,2013-01-01 20:47:00,
2013-01-01 14:52:00,57.9,53.7,30.09,NNE,14,4.0,5.6,86,0.00,,FEW,0.10,WeatherDisplay:10.37,2013-01-01 20:52:00,
2013-01-01 14:57:00,57.7,53.5,30.08,NNW,344,9.0,9.2,86,0.00,,FEW,0.10,WeatherDisplay:10.37,2013-01-01 20:57:00,
2013-01-01 15:02:00,57.6,53.4,30.09,NNW,334,3.6,5.8,86,0.00,,FEW,0.10,WeatherDisplay:10.37,2013-01-01 21:02:00,
2013-01-01 15:07:00,57.5,53.3,30.10,NE,36,5.9,8.1,86,0.00,,FEW,0.10,WeatherDisplay:10.37,2013-01-01 21:07:00,
2013-01-01 15:12:00,57.4,53.2,30.09,North,3,4.2,5.6,86,0.00,,FEW,0.10,WeatherDisplay:10.37,2013-01-01 21:12:00,
2013-01-01 15:17:00,57.3,53.1,30.09,NE,42,3.4,5.8,86,0.00,,FEW,0.10,WeatherDisplay:10.37,2013-01-01 21:17:00,
2013-01-01 15:22:00,57.3,52.8,30.10,NNW,331,5.5,8.1,85,0.00,,FEW,0.10,WeatherDisplay:10.37,2013-01-01 21:22:00,
2013-01-01 15:27:00,57.2,52.4,30.11,NNE,14,5.4,5.8,84,0.00,,FEW,0.10,WeatherDisplay:10.37,2013-01-01 21:27:00,
2013-01-01 15:32:00,57.2,52.7,30.10,NNW,341,6.2,12.7,85,0.00,,FEW,0.10,WeatherDisplay:10.37,2013-01-01 21:32:00,
2013-01-01 15:37:00,57.2,52.4,30.11,NNE,16,4.1,8.1,84,0.00,,FEW,0.10,WeatherDisplay:10.37,2013-01-01 21:37:00,
2013-01-01 15:42:00,57.1,52.3,30.11,NNE,26,8.4,9.2,84,0.00,,FEW,0.10,WeatherDisplay:10.37,2013-01-01 21:42:00,
2013-01-01 15:47:00,57.0,52.2,30.10,North,354,1.7,3.5,84,0.00,,FEW,0.10,WeatherDisplay:10.37,2013-01-01 21:47:00,
2013-01-01 15:52:00,57.0,52.2,30.10,NE,40,5.3,8.1,84,0.00,,FEW,0.10,WeatherDisplay:10.37,2013-01-01 21:52:00,
2013-01-01 15:57:00,57.0,52.2,30.10,NNW,342,6.8,8.1,84,0.00,,FEW,0.10,WeatherDisplay:10.37,2013-01-01 21:57:00,
2013-01-01 16:02:00,56.8,51.7,30.10,North,352,4.7,8.1,83,0.00,,FEW,0.10,WeatherDisplay:10.37,2013-01-01 22:02:00,
2013-01-01 16:07:00,56.8,51.7,30.10,North,360,5.1,9.2,83,0.00,,FEW,0.10,WeatherDisplay:10.37,2013-01-01 22:07:00,
2013-01-01 16:12:00,56.7,51.6,30.10,North,358,1.4,3.5,83,0.00,,FEW,0.10,WeatherDisplay:10.37,2013-01-01 22:12:00,
2013-01-01 16:17:00,56.7,51.6,30.10,NNE,26,4.5,5.8,83,0.00,,FEW,0.10,WeatherDisplay:10.37,2013-01-01 22:17:00,
2013-01-01 16:22:00,56.6,51.8,30.09,North,360,2.8,3.5,84,0.00,,FEW,0.10,WeatherDisplay:10.37,2013-01-01 22:22:00,
2013-01-01 16:27:00,56.6,51.8,30.09,North,353,3.3,3.5,84,0.00,,FEW,0.10,WeatherDisplay:10.37,2013-01-01 22:27:00,
2013-01-01 16:32:00,56.5,51.4,30.11,NE,52,5.8,5.8,83,0.00,,FEW,0.10,WeatherDisplay:10.37,2013-01-01 22:32:00,
2013-01-01 16:37:00,56.6,51.8,30.11,East,82,2.1,5.8,84,0.00,,FEW,0.10,WeatherDisplay:10.37,2013-01-01 22:37:00,
2013-01-01 16:42:00,56.6,51.5,30.11,ENE,57,2.6,3.8,83,0.00,,FEW,0.10,WeatherDisplay:10.37,2013-01-01 22:42:00,
2013-01-01 16:47:00,56.5,51.4,30.11,NW,304,3.2,5.8,83,0.00,,FEW,0.10,WeatherDisplay:10.37,2013-01-01 22:47:00,
2013-01-01 16:52:00,56.6,51.5,30.12,NE,43,2.8,3.5,83,0.00,,FEW,0.10,WeatherDisplay:10.37,2013-01-01 22:52:00,
2013-01-01 16:57:00,56.6,51.5,30.11,North,2,4.3,5.8,83,0.00,,FEW,0.10,WeatherDisplay:10.37,2013-01-01 22:57:00,
2013-01-01 17:02:00,56.5,51.4,30.12,ENE,57,2.5,5.8,83,0.00,,FEW,0.10,WeatherDisplay:10.37,2013-01-01 23:02:00,
2013-01-01 17:07:00,56.5,51.1,30.12,NNE,21,1.7,5.8,82,0.00,,FEW,0.10,WeatherDisplay:10.37,2013-01-01 23:07:00,
2013-01-01 17:12:00,56.4,51.0,30.12,North,349,2.7,3.5,82,0.00,,FEW,0.10,WeatherDisplay:10.37,2013-01-01 23:12:00,
2013-01-01 17:17:00,56.4,51.3,30.11,NE,35,1.7,2.3,83,0.00,,FEW,0.10,WeatherDisplay:10.37,2013-01-01 23:17:00,
2013-01-01 17:22:00,56.3,50.9,30.11,NNE,33,5.7,5.8,82,0.00,,FEW,0.10,WeatherDisplay:10.37,2013-01-01 23:22:00,
2013-01-01 17:27:00,56.3,50.9,30.12,NNE,14,3.5,8.1,82,0.00,,FEW,0.10,WeatherDisplay:10.37,2013-01-01 23:27:00,
2013-01-01 17:32:00,56.2,50.8,30.12,NNE,25,0.5,2.3,82,0.00,,FEW,0.10,WeatherDisplay:10.37,2013-01-01 23:32:00,
2013-01-01 17:37:00,56.1,50.7,30.11,NE,40,0.5,5.8,82,0.00,,FEW,0.10,WeatherDisplay:10.37,2013-01-01 23:37:00,
2013-01-01 17:42:00,56.0,50.6,30.12,North,11,1.3,3.5,82,0.00,,FEW,0.10,WeatherDisplay:10.37,2013-01-01 23:42:00,
2013-01-01 17:47:00,55.9,50.8,30.12,North,1,3.6,5.8,83,0.00,,FEW,0.10,WeatherDisplay:10.37,2013-01-01 23:47:00,
2013-01-01 17:52:00,55.8,50.7,30.12,NNW,348,3.9,3.9,83,0.00,,FEW,0.10,WeatherDisplay:10.37,2013-01-01 23:52:00,
2013-01-01 17:57:00,55.8,50.7,30.12,NE,53,0.5,2.3,83,0.00,,FEW,0.10,WeatherDisplay:10.37,2013-01-01 23:57:00,
2013-01-01 18:02:00,55.7,50.6,30.12,NNW,343,4.0,4.0,83,0.00,,FEW,0.10,WeatherDisplay:10.37,2013-01-02 00:02:00,
2013-01-01 18:07:00,55.7,50.6,30.12,NE,49,0.8,2.3,83,0.00,,FEW,0.10,WeatherDisplay:10.37,2013-01-02 00:07:00,
2013-01-01 18:12:00,55.7,50.6,30.13,NNW,332,1.2,2.3,83,0.00,,FEW,0.10,WeatherDisplay:10.37,2013-01-02 00:12:00,
2013-01-01 18:17:00,55.7,50.9,30.13,North,358,3.3,8.1,84,0.00,,FEW,0.10,WeatherDisplay:10.37,2013-01-02 00:17:00,
2013-01-01 18:22:00,55.7,50.9,30.13,NE,40,3.5,3.5,84,0.00,,FEW,0.10,WeatherDisplay:10.37,2013-01-02 00:22:00,
2013-01-01 18:27:00,55.7,50.9,30.13,NNW,345,4.9,5.8,84,0.00,,FEW,0.10,WeatherDisplay:10.37,2013-01-02 00:27:00,
2013-01-01 18:32:00,55.8,51.0,30.13,NNW,341,5.3,5.8,84,0.00,,FEW,0.10,WeatherDisplay:10.37,2013-01-02 00:32:00,
2013-01-01 18:37:00,55.8,50.7,30.14,NE,38,5.9,8.1,83,0.00,,FEW,0.10,WeatherDisplay:10.37,2013-01-02 00:37:00,
2013-01-01 18:42:00,55.7,50.6,30.15,North,352,1.7,5.8,83,0.00,,FEW,0.10,WeatherDisplay:10.37,2013-01-02 00:42:00,
2013-01-01 18:47:00,55.7,50.6,30.15,NNW,338,0.1,2.3,83,0.00,,FEW,0.10,WeatherDisplay:10.37,2013-01-02 00:47:00,
2013-01-01 18:52:00,55.6,50.5,30.15,NNE,26,2.2,2.3,83,0.00,,FEW,0.10,WeatherDisplay:10.37,2013-01-02 00:52:00,
2013-01-01 18:57:00,55.6,50.5,30.16,North,9,6.7,6.7,83,0.00,,FEW,0.10,WeatherDisplay:10.37,2013-01-02 00:57:00,
2013-01-01 19:02:00,55.6,50.5,30.15,North,1,3.1,5.8,83,0.00,CLR,FEW,0.10,WeatherDisplay:10.37,2013-01-02 01:02:00,
2013-01-01 19:07:00,55.6,50.2,30.15,North,353,2.0,5.8,82,0.00,CLR,FEW,0.10,WeatherDisplay:10.37,2013-01-02 01:07:00,
2013-01-01 19:12:00,55.5,50.1,30.15,NE,46,9.2,9.2,82,0.00,CLR,FEW,0.10,WeatherDisplay:10.37,2013-01-02 01:12:00,
2013-01-01 19:17:00,55.4,50.0,30.15,North,9,4.2,4.2,82,0.00,CLR,FEW,0.10,WeatherDisplay:10.37,2013-01-02 01:17:00,
2013-01-01 19:22:00,55.3,49.6,30.16,NNW,345,7.6,7.6,81,0.00,CLR,FEW,0.10,WeatherDisplay:10.37,2013-01-02 01:22:00,
2013-01-01 19:27:00,55.2,49.5,30.15,NNW,346,3.4,7.5,81,0.00,CLR,FEW,0.10,WeatherDisplay:10.37,2013-01-02 01:27:00,
2013-01-01 19:32:00,55.2,49.5,30.15,NE,39,4.6,9.2,81,0.00,CLR,FEW,0.10,WeatherDisplay:10.37,2013-01-02 01:32:00,
2013-01-01 19:37:00,55.1,49.4,30.16,NNW,341,5.8,5.8,81,0.00,CLR,FEW,0.10,WeatherDisplay:10.37,2013-01-02 01:37:00,
2013-01-01 19:42:00,55.0,49.3,30.16,North,355,3.1,8.1,81,0.00,CLR,FEW,0.10,WeatherDisplay:10.37,2013-01-02 01:42:00,
2013-01-01 19:47:00,54.9,49.2,30.16,North,352,2.2,5.8,81,0.00,CLR,FEW,0.10,WeatherDisplay:10.37,2013-01-02 01:47:00,
2013-01-01 19:52:00,54.8,49.1,30.16,NE,45,4.2,5.8,81,0.00,CLR,FEW,0.10,WeatherDisplay:10.37,2013-01-02 01:52:00,
2013-01-01 19:57:00,54.7,49.0,30.17,North,3,4.7,5.8,81,0.00,CLR,FEW,0.10,WeatherDisplay:10.37,2013-01-02 01:57:00,
2013-01-01 20:02:00,54.7,49.0,30.17,NNW,339,6.5,6.5,81,0.00,CLR,FEW,0.10,WeatherDisplay:10.37,2013-01-02 02:02:00,
2013-01-01 20:07:00,54.6,48.9,30.17,North,350,2.8,5.8,81,0.00,CLR,FEW,0.10,WeatherDisplay:10.37,2013-01-02 02:07:00,
2013-01-01 20:12:00,54.6,48.9,30.17,NE,52,6.1,12.7,81,0.00,CLR,FEW,0.10,WeatherDisplay:10.37,2013-01-02 02:12:00,
2013-01-01 20:17:00,54.5,48.8,30.16,North,5,3.4,3.5,81,0.00,CLR,FEW,0.10,WeatherDisplay:10.37,2013-01-02 02:17:00,
2013-01-01 20:22:00,54.4,49.0,30.17,North,2,3.6,5.8,82,0.00,CLR,FEW,0.10,WeatherDisplay:10.37,2013-01-02 02:22:00,
2013-01-01 20:27:00,54.3,48.9,30.17,NNW,331,4.4,4.4,82,0.00,CLR,FEW,0.10,WeatherDisplay:10.37,2013-01-02 02:27:00,
2013-01-01 20:32:00,54.3,48.9,30.18,North,352,8.7,8.7,82,0.00,CLR,FEW,0.10,WeatherDisplay:10.37,2013-01-02 02:32:00,
2013-01-01 20:37:00,54.2,48.8,30.17,NE,52,0.4,2.3,82,0.00,CLR,FEW,0.10,WeatherDisplay:10.37,2013-01-02 02:37:00,
2013-01-01 20:42:00,54.2,48.8,30.18,NNE,28,5.0,5.8,82,0.00,CLR,FEW,0.10,WeatherDisplay:10.37,2013-01-02 02:42:00,
2013-01-01 20:47:00,54.1,48.7,30.19,NNE,12,4.3,8.1,82,0.00,CLR,FEW,0.10,WeatherDisplay:10.37,2013-01-02 02:47:00,
2013-01-01 20:52:00,54.1,49.1,30.19,NNW,344,2.7,2.7,83,0.00,CLR,FEW,0.10,WeatherDisplay:10.37,2013-01-02 02:52:00,
2013-01-01 20:57:00,54.1,48.7,30.19,NNW,344,9.8,11.5,82,0.00,CLR,FEW,0.10,WeatherDisplay:10.37,2013-01-02 02:57:00,
2013-01-01 21:02:00,54.0,48.6,30.19,NNW,335,4.5,5.8,82,0.00,CLR,FEW,0.10,WeatherDisplay:10.37,2013-01-02 03:02:00,
2013-01-01 21:07:00,53.9,48.5,30.19,NW,325,7.2,9.2,82,0.00,CLR,FEW,0.10,WeatherDisplay:10.37,2013-01-02 03:07:00,
2013-01-01 21:12:00,53.7,48.3,30.19,NW,309,7.0,7.0,82,0.00,CLR,FEW,0.10,WeatherDisplay:10.37,2013-01-02 03:12:00,
2013-01-01 21:17:00,53.4,48.0,30.19,NE,43,7.8,15.0,82,0.00,CLR,FEW,0.10,WeatherDisplay:10.37,2013-01-02 03:17:00,
2013-01-01 21:22:00,53.2,48.2,30.19,NNW,330,10.3,10.3,83,0.00,CLR,FEW,0.10,WeatherDisplay:10.37,2013-01-02 03:22:00,
2013-01-01 21:27:00,53.0,48.0,30.20,NNE,29,5.3,5.3,83,0.00,CLR,FEW,0.10,WeatherDisplay:10.37,2013-01-02 03:27:00,
2013-01-01 21:32:00,52.8,47.8,30.20,NNE,24,8.8,8.8,83,0.00,CLR,FEW,0.10,WeatherDisplay:10.37,2013-01-02 03:32:00,
2013-01-01 21:37:00,52.6,47.6,30.19,NNW,339,0.6,2.3,83,0.00,CLR,FEW,0.10,WeatherDisplay:10.37,2013-01-02 03:37:00,
2013-01-01 21:42:00,52.4,47.7,30.19,North,357,4.3,8.1,84,0.00,CLR,FEW,0.10,WeatherDisplay:10.37,2013-01-02 03:42:00,
2013-01-01 21:47:00,52.1,47.4,30.20,NNW,335,4.7,5.8,84,0.00,CLR,FEW,0.10,WeatherDisplay:10.37,2013-01-02 03:47:00,
2013-01-01 21:52:00,51.8,47.1,30.20,NNW,331,9.8,9.8,84,0.00,CLR,FEW,0.10,WeatherDisplay:10.37,2013-01-02 03:52:00,
2013-01-01 21:57:00,51.5,46.5,30.19,SE,137,6.8,9.4,83,0.00,CLR,FEW,0.10,WeatherDisplay:10.37,2013-01-02 03:57:00,
2013-01-01 22:02:00,51.3,46.3,30.18,North,357,4.1,9.4,83,0.00,,FEW,0.10,WeatherDisplay:10.37,2013-01-02 04:02:00,
2013-01-01 22:07:00,51.2,46.2,30.18,NE,40,1.1,3.5,83,0.00,,FEW,0.10,WeatherDisplay:10.37,2013-01-02 04:07:00,
2013-01-01 22:12:00,51.0,46.3,30.19,NNE,32,4.0,8.1,84,0.00,,FEW,0.10,WeatherDisplay:10.37,2013-01-02 04:12:00,
2013-01-01 22:17:00,51.0,46.6,30.18,NNE,17,1.7,3.5,85,0.00,,FEW,0.10,WeatherDisplay:10.37,2013-01-02 04:17:00,
2013-01-01 22:22:00,50.9,46.6,30.18,NNW,336,0.0,2.3,85,0.00,,FEW,0.10,WeatherDisplay:10.37,2013-01-02 04:22:00,
2013-01-01 22:27:00,50.8,46.8,30.19,NW,313,0.5,2.3,86,0.00,,FEW,0.10,WeatherDisplay:10.37,2013-01-02 04:27:00,
2013-01-01 22:32:00,50.7,46.4,30.20,North,356,8.5,8.5,85,0.00,,FEW,0.10,WeatherDisplay:10.37,2013-01-02 04:32:00,
2013-01-01 22:37:00,50.6,46.3,30.20,North,356,4.6,5.8,85,0.00,,FEW,0.10,WeatherDisplay:10.37,2013-01-02 04:37:00,
2013-01-01 22:42:00,50.4,45.4,30.19,ENE,64,8.1,9.2,83,0.00,,FEW,0.10,WeatherDisplay:10.37,2013-01-02 04:42:00,
2013-01-01 22:47:00,50.3,45.3,30.19,North,353,7.5,9.2,83,0.00,,FEW,0.10,WeatherDisplay:10.37,2013-01-02 04:47:00,
2013-01-01 22:52:00,50.3,45.6,30.19,North,353,4.3,9.2,84,0.00,,FEW,0.10,WeatherDisplay:10.37,2013-01-02 04:52:00,
2013-01-01 22:57:00,50.2,45.6,30.19,North,353,4.3,4.3,84,0.00,,FEW,0.10,WeatherDisplay:10.37,2013-01-02 04:57:00,
2013-01-01 23:00:00,50.1,45.5,30.19,NE,56,13.0,13.2,84,0.00,,FEW,0.10,WeatherDisplay:10.37,2013-01-02 05:00:00,
2013-01-01 23:02:00,50.1,45.5,30.19,North,5,6.6,12.7,84,0.00,,FEW,0.10,WeatherDisplay:10.37,2013-01-02 05:02:00,
2013-01-01 23:03:00,50.1,45.5,30.19,North,354,6.6,8.1,84,0.00,,FEW,0.10,WeatherDisplay:10.37,2013-01-02 05:03:00,
2013-01-01 23:08:00,50.0,45.4,30.20,North,354,8.8,8.8,84,0.00,,FEW,0.10,WeatherDisplay:10.37,2013-01-02 05:08:00,
2013-01-01 23:13:00,50.0,45.4,30.20,East,98,3.6,5.8,84,0.00,,FEW,0.10,WeatherDisplay:10.37,2013-01-02 05:13:00,
2013-01-01 23:18:00,49.9,45.3,30.20,NNW,329,2.7,2.7,84,0.00,,FEW,0.10,WeatherDisplay:10.37,2013-01-02 05:18:00,
2013-01-01 23:23:00,49.8,45.2,30.20,NE,35,6.4,6.4,84,0.00,,FEW,0.10,WeatherDisplay:10.37,2013-01-02 05:23:00,
2013-01-01 23:28:00,49.8,45.2,30.20,North,7,5.0,8.1,84,0.00,,FEW,0.10,WeatherDisplay:10.37,2013-01-02 05:28:00,
2013-01-01 23:33:00,49.7,45.1,30.20,North,1,10.0,11.5,84,0.00,,FEW,0.10,WeatherDisplay:10.37,2013-01-02 05:33:00,
2013-01-01 23:38:00,49.7,45.1,30.19,NE,47,8.5,8.5,84,0.00,,FEW,0.10,WeatherDisplay:10.37,2013-01-02 05:38:00,
2013-01-01 23:43:00,49.6,45.0,30.20,NE,34,3.7,3.7,84,0.00,,FEW,0.10,WeatherDisplay:10.37,2013-01-02 05:43:00,
2013-01-01 23:48:00,49.6,45.0,30.19,ENE,57,4.6,4.6,84,0.00,,FEW,0.10,WeatherDisplay:10.37,2013-01-02 05:48:00,
2013-01-01 23:53:00,49.5,44.9,30.19,NNW,329,4.5,5.8,84,0.00,,FEW,0.10,WeatherDisplay:10.37,2013-01-02 05:53:00,
2013-01-01 23:58:00,49.4,45.1,30.19,NE,42,3.8,3.8,85,0.00,,FEW,0.10,WeatherDisplay:10.37,2013-01-02 05:58:00,